QPF
0.00 0.00 0.00 0.00 0.00 0.00 0.00 0.00 0.00 0.00 0.00 0.00 0.00 0.00 0.00 0.00 0.00 0.00 0.00 0.00 0.00 0.00 0.00 0.00 0.00 0.00 0.00 0.00 0.00 0.00 0.00 0.01 0.01 0.00 0.00 0.01 0.01 0.01 0.01 0.01 0.01 0.01 0.01 0.01 0.01 0.00 0.00 0.00 0.00
0.00 0.00 0.00 0.00 0.00 0.00 0.00 0.00 0.00 0.00 0.00 0.00 0.00 0.00 0.00 0.00 0.00 0.00 0.00 0.00 0.00 0.00 0.00 0.00 0.00 0.00 0.00 0.00 0.00 0.00 0.00 0.01 0.01 0.01 0.01 0.01 0.01 0.01 0.01 0.01 0.01 0.01 0.01 0.01 0.00 0.00 0.00 0.00 0.00
0.00 0.00 0.00 0.00 0.00 0.00 0.00 0.00 0.00 0.00 0.00 0.00 0.00 0.00 0.00 0.00 0.00 0.00 0.00 0.00 0.00 0.00 0.00 0.00 0.00 0.00 0.00 0.00 0.00 0.00 0.00 0.00 0.01 0.00 0.01 0.01 0.01 0.01 0.01 0.01 0.01 0.01 0.00 0.00 0.00 0.00 0.00 0.00 0.00
0.00 0.00 0.00 0.00 0.00 0.00 0.00 0.00 0.00 0.00 0.00 0.00 0.00 0.00 0.00 0.00 0.00 0.00 0.00 0.00 0.00 0.00 0.00 0.00 0.00 0.00 0.00 0.00 0.00 0.00 0.00 0.00 0.00 0.00 0.01 0.01 0.01 0.00 0.00 0.00 0.01 0.00 0.00 0.00 0.00 0.00 0.00 0.00 0.00
0.01 0.01 0.00 0.00 0.00 0.00 0.00 0.00 0.00 0.00 0.00 0.00 0.00 0.00 0.00 0.00 0.00 0.00 0.00 0.00 0.00 0.00 0.00 0.00 0.00 0.00 0.00 0.00 0.00 0.00 0.00 0.00 0.00 0.00 0.01 0.00 0.00 0.00 0.00 0.00 0.00 0.00 0.00 0.00 0.00 0.00 0.00 0.00 0.00
0.02 0.02 0.01 0.00 0.00 0.00 0.00 0.00 0.00 0.00 0.00 0.00 0.00 0.00 0.00 0.00 0.00 0.00 0.00 0.00 0.00 0.00 0.00 0.00 0.00 0.00 0.00 0.00 0.00 0.00 0.00 0.00 0.00 0.00 0.00 0.00 0.00 0.00 0.00 0.00 0.00 0.00 0.00 0.00 0.00 0.00 0.00 0.00 0.00
0.03 0.02 0.01 0.00 0.00 0.00 0.00 0.00 0.00 0.00 0.00 0.00 0.00 0.00 0.00 0.00 0.00 0.00 0.00 0.00 0.00 0.00 0.00 0.00 0.00 0.00 0.00 0.00 0.00 0.00 0.00 0.00 0.00 0.00 0.00 0.00 0.00 0.00 0.00 0.00 0.00 0.00 0.00 0.00 0.00 0.00 0.00 0.00 0.00
0.03 0.04 0.02 0.01 0.00 0.00 0.00 0.00 0.00 0.00 0.00 0.00 0.00 0.00 0.00 0.00 0.00 0.00 0.00 0.00 0.00 0.00 0.00 0.00 0.00 0.00 0.00 0.00 0.00 0.00 0.00 0.00 0.00 0.00 0.00 0.00 0.00 0.00 0.00 0.00 0.00 0.00 0.00 0.00 0.00 0.00 0.00 0.00 0.00
0.04 0.03 0.01 0.01 0.01 0.01 0.00 0.00 0.00 0.00 0.00 0.00 0.00 0.00 0.00 0.00 0.00 0.00 0.00 0.00 0.00 0.00 0.00 0.00 0.00 0.00 0.00 0.00 0.00 0.00 0.00 0.00 0.00 0.00 0.00 0.00 0.00 0.00 0.00 0.00 0.00 0.00 0.00 0.00 0.00 0.00 0.00 0.00 0.00
0.05 0.03 0.01 0.01 0.01 0.01 0.01 0.00 0.00 0.00 0.00 0.00 0.00 0.00 0.00 0.00 0.00 0.00 0.00 0.00 0.00 0.00 0.00 0.00 0.00 0.00 0.00 0.00 0.00 0.00 0.00 0.00 0.00 0.00 0.00 0.00 0.00 0.00 0.00 0.00 0.00 0.00 0.00 0.00 0.00 0.00 0.00 0.00 0.00
0.03 0.02 0.01 0.01 0.01 0.01 0.01 0.01 0.00 0.00 0.00 0.00 0.00 0.01 0.00 0.00 0.00 0.00 0.00 0.00 0.00 0.00 0.00 0.00 0.00 0.00 0.00 0.00 0.00 0.00 0.00 0.00 0.00 0.00 0.00 0.00 0.00 0.00 0.00 0.00 0.00 0.00 0.00 0.00 0.00 0.00 0.00 0.00 0.00
0.04 0.01 0.00 0.00 0.01 0.01 0.00 0.00 0.00 0.00 0.00 0.00 0.00 0.01 0.01 0.01 0.00 0.00 0.00 0.00 0.00 0.00 0.00 0.00 0.00 0.00 0.00 0.00 0.00 0.00 0.00 0.00 0.00 0.00 0.00 0.00 0.00 0.00 0.00 0.00 0.00 0.00 0.00 0.00 0.00 0.00 0.00 0.00 0.00
0.05 0.04 0.01 0.00 0.01 0.01 0.01 0.01 0.00 0.00 0.00 0.00 0.00 0.00 0.01 0.01 0.01 0.01 0.00 0.00 0.00 0.00 0.00 0.00 0.00 0.00 0.00 0.00 0.00 0.00 0.00 0.00 0.00 0.00 0.00 0.00 0.00 0.00 0.00 0.00 0.00 0.00 0.00 0.00 0.00 0.00 0.00 0.00 0.00
0.03 0.03 0.04 0.03 0.01 0.01 0.01 0.01 0.00 0.00 0.00 0.00 0.00 0.00 0.01 0.01 0.01 0.01 0.00 0.00 0.00 0.00 0.00 0.00 0.00 0.00 0.00 0.00 0.00 0.00 0.00 0.00 0.00 0.00 0.00 0.00 0.00 0.00 0.00 0.00 0.00 0.00 0.00 0.00 0.00 0.00 0.00 0.00 0.00
0.03 0.03 0.04 0.04 0.03 0.02 0.02 0.01 0.00 0.00 0.00 0.00 0.00 0.00 0.01 0.01 0.01 0.01 0.01 0.01 0.00 0.00 0.00 0.00 0.00 0.00 0.00 0.00 0.00 0.00 0.00 0.00 0.00 0.00 0.00 0.00 0.00 0.00 0.00 0.00 0.00 0.00 0.00 0.00 0.00 0.00 0.00 0.00 0.00
0.04 0.05 0.04 0.02 0.02 0.02 0.04 0.03 0.00 0.00 0.00 0.00 0.00 0.00 0.00 0.01 0.01 0.01 0.01 0.01 0.01 0.00 0.00 0.00 0.00 0.00 0.00 0.00 0.00 0.00 0.00 0.00 0.00 0.00 0.00 0.00 0.00 0.00 0.00 0.00 0.00 0.00 0.00 0.00 0.00 0.00 0.00 0.00 0.00
0.05 0.05 0.03 0.01 0.01 0.02 0.03 0.02 0.00 0.00 0.01 0.00 0.00 0.00 0.00 0.01 0.01 0.01 0.01 0.01 0.01 0.01 0.01 0.00 0.00 0.00 0.00 0.00 0.00 0.00 0.00 0.00 0.00 0.00 0.00 0.00 0.00 0.00 0.00 0.00 0.00 0.00 0.00 0.00 0.00 0.00 0.00 0.00 0.00
0.04 0.03 0.02 0.02 0.02 0.02 0.02 0.01 0.00 0.00 0.01 0.01 0.01 0.00 0.00 0.00 0.01 0.01 0.01 0.01 0.01 0.01 0.01 0.01 0.01 0.00 0.00 0.00 0.00 0.00 0.00 0.00 0.00 0.00 0.00 0.00 0.00 0.00 0.00 0.00 0.00 0.00 0.00 0.00 0.00 0.00 0.00 0.00 0.00
0.03 0.02 0.02 0.02 0.02 0.03 0.02 0.01 0.00 0.00 0.01 0.01 0.01 0.01 0.00 0.00 0.00 0.01 0.02 0.01 0.01 0.01 0.01 0.01 0.01 0.01 0.01 0.00 0.00 0.00 0.00 0.00 0.00 0.00 0.00 0.00 0.00 0.00 0.00 0.00 0.00 0.01 0.01 0.01 0.00 0.00 0.00 0.00 0.00
0.05 0.04 0.02 0.01 0.01 0.02 0.02 0.01 0.00 0.00 0.00 0.00 0.00 0.01 0.00 0.00 0.00 0.01 0.01 0.01 0.01 0.01 0.01 0.01 0.01 0.01 0.01 0.00 0.00 0.00 0.00 0.00 0.00 0.00 0.00 0.00 0.00 0.00 0.00 0.00 0.00 0.00 0.01 0.01 0.00 0.01 0.01 0.01 0.01
0.05 0.04 0.02 0.02 0.01 0.02 0.02 0.01 0.00 0.00 0.00 0.00 0.00 0.00 0.00 0.00 0.00 0.00 0.01 0.01 0.01 0.01 0.00 0.01 0.01 0.02 0.02 0.01 0.01 0.00 0.00 0.00 0.00 0.00 0.00 0.00 0.00 0.00 0.00 0.00 0.00 0.00 0.00 0.00 0.01 0.01 0.01 0.01 0.01
0.05 0.03 0.02 0.03 0.04 0.04 0.03 0.02 0.00 0.00 0.00 0.00 0.00 0.00 0.00 0.00 0.00 0.00 0.01 0.01 0.01 0.01 0.01 0.00 0.01 0.01 0.02 0.02 0.02 0.01 0.00 0.00 0.00 0.00 0.00 0.00 0.00 0.00 0.00 0.00 0.00 0.00 0.00 0.00 0.00 0.01 0.01 0.01 0.01
0.03 0.02 0.03 0.04 0.05 0.06 0.04 0.03 0.01 0.00 0.00 0.00 0.00 0.00 0.00 0.00 0.00 0.00 0.00 0.01 0.01 0.01 0.02 0.01 0.01 0.01 0.02 0.03 0.03 0.02 0.01 0.01 0.00 0.00 0.00 0.00 0.00 0.00 0.00 0.00 0.00 0.00 0.00 0.00 0.00 0.01 0.01 0.01 0.01
0.03 0.04 0.05 0.06 0.09 0.11 0.05 0.03 0.01 0.00 0.00 0.00 0.00 0.00 0.00 0.00 0.00 0.00 0.00 0.00 0.01 0.01 0.02 0.02 0.02 0.01 0.01 0.02 0.05 0.05 0.04 0.02 0.01 0.00 0.00 0.00 0.00 0.00 0.00 0.00 0.00 0.00 0.00 0.00 0.01 0.01 0.01 0.01 0.01
0.04 0.07 0.12 0.12 0.14 0.09 0.01 0.01 0.01 0.00 0.00 0.00 0.00 0.00 0.00 0.00 0.00 0.00 0.00 0.00 0.00 0.01 0.01 0.02 0.02 0.02 0.01 0.01 0.01 0.04 0.06 0.06 0.05 0.03 0.01 0.00 0.00 0.00 0.00 0.00 0.00 0.00 0.00 0.00 0.00 0.01 0.01 0.01 0.01
0.04 0.07 0.08 0.07 0.04 0.01 0.00 0.00 0.00 0.00 0.00 0.00 0.00 0.00 0.00 0.00 0.00 0.00 0.00 0.00 0.00 0.00 0.01 0.01 0.02 0.02 0.01 0.01 0.01 0.01 0.02 0.04 0.05 0.05 0.05 0.03 0.01 0.00 0.00 0.00 0.00 0.00 0.00 0.01 0.01 0.01 0.01 0.01 0.01
0.04 0.06 0.06 0.06 0.04 0.02 0.01 0.00 0.00 0.00 0.00 0.00 0.00 0.00 0.00 0.00 0.00 0.00 0.00 0.00 0.00 0.00 0.01 0.01 0.02 0.02 0.02 0.02 0.01 0.01 0.01 0.01 0.02 0.03 0.04 0.04 0.03 0.02 0.01 0.00 0.00 0.00 0.01 0.01 0.01 0.01 0.01 0.01 0.01
0.03 0.04 0.08 0.10 0.08 0.04 0.01 0.00 0.00 0.00 0.00 0.00 0.00 0.00 0.00 0.00 0.00 0.00 0.00 0.00 0.00 0.01 0.01 0.01 0.01 0.02 0.03 0.02 0.02 0.01 0.01 0.01 0.01 0.01 0.02 0.03 0.04 0.04 0.03 0.02 0.01 0.01 0.01 0.01 0.01 0.02 0.02 0.02 0.02
0.04 0.04 0.07 0.09 0.08 0.04 0.02 0.00 0.00 0.00 0.00 0.00 0.00 0.00 0.00 0.00 0.00 0.00 0.00 0.00 0.00 0.00 0.01 0.01 0.01 0.01 0.02 0.03 0.03 0.02 0.01 0.01 0.01 0.01 0.01 0.01 0.01 0.02 0.02 0.02 0.02 0.01 0.01 0.01 0.01 0.01 0.02 0.02 0.02
0.03 0.04 0.05 0.08 0.06 0.04 0.03 0.01 0.00 0.00 0.00 0.00 0.00 0.00 0.00 0.00 0.00 0.00 0.00 0.00 0.00 0.00 0.00 0.00 0.01 0.01 0.01 0.01 0.02 0.03 0.03 0.02 0.01 0.01 0.01 0.01 0.01 0.01 0.01 0.01 0.01 0.01 0.01 0.01 0.01 0.01 0.01 0.02 0.02
MSLP
1014.47 1014.76 1015.24 1015.83 1016.39 1016.82 1017.08 1017.13 1017.01 1016.79 1016.57 1016.43 1016.40 1016.50 1016.69 1016.90 1017.08 1017.18 1017.17 1017.10 1017.02 1016.98 1017.06 1017.27 1017.61 1018.03 1018.46 1018.83 1019.09 1019.23 1019.26 1019.23 1019.21 1019.26 1019.40 1019.65 1019.97 1020.32 1020.63 1020.86 1021.00 1021.03 1021.00 1020.95 1020.92 1020.93 1021.00 1021.13 1021.29
1015.05 1015.40 1015.89 1016.39 1016.81 1017.05 1017.09 1016.93 1016.63 1016.27 1015.95 1015.75 1015.70 1015.82 1016.03 1016.29 1016.51 1016.66 1016.71 1016.70 1016.69 1016.72 1016.87 1017.14 1017.52 1017.97 1018.42 1018.80 1019.08 1019.23 1019.29 1019.30 1019.33 1019.41 1019.60 1019.87 1020.21 1020.56 1020.86 1021.09 1021.22 1021.26 1021.23 1021.19 1021.17 1021.19 1021.26 1021.37 1021.51
1015.74 1016.12 1016.55 1016.92 1017.16 1017.19 1017.00 1016.64 1016.17 1015.70 1015.32 1015.11 1015.09 1015.25 1015.52 1015.82 1016.10 1016.29 1016.40 1016.44 1016.47 1016.56 1016.75 1017.05 1017.47 1017.93 1018.40 1018.79 1019.09 1019.27 1019.36 1019.41 1019.48 1019.60 1019.80 1020.08 1020.40 1020.72 1021.00 1021.20 1021.31 1021.35 1021.35 1021.34 1021.35 1021.40 1021.49 1021.61 1021.73
1016.48 1016.85 1017.18 1017.40 1017.43 1017.24 1016.84 1016.29 1015.70 1015.15 1014.76 1014.58 1014.62 1014.84 1015.17 1015.54 1015.87 1016.10 1016.25 1016.33 1016.40 1016.52 1016.73 1017.06 1017.49 1017.96 1018.43 1018.83 1019.14 1019.35 1019.47 1019.56 1019.66 1019.80 1020.00 1020.26 1020.55 1020.82 1021.05 1021.22 1021.32 1021.37 1021.40 1021.43 1021.50 1021.59 1021.72 1021.85 1021.98
1017.21 1017.53 1017.75 1017.80 1017.63 1017.23 1016.65 1015.96 1015.28 1014.70 1014.33 1014.20 1014.30 1014.59 1014.99 1015.42 1015.79 1016.06 1016.24 1016.35 1016.45 1016.60 1016.83 1017.17 1017.60 1018.07 1018.53 1018.92 1019.24 1019.46 1019.61 1019.73 1019.85 1020.00 1020.20 1020.43 1020.68 1020.90 1021.09 1021.22 1021.30 1021.36 1021.43 1021.51 1021.63 1021.78 1021.95 1022.12 1022.25
1017.84 1018.10 1018.20 1018.10 1017.75 1017.19 1016.48 1015.70 1014.96 1014.39 1014.06 1013.98 1014.15 1014.50 1014.95 1015.41 1015.82 1016.12 1016.32 1016.46 1016.59 1016.77 1017.02 1017.36 1017.77 1018.22 1018.66 1019.04 1019.34 1019.57 1019.73 1019.87 1020.02 1020.19 1020.39 1020.60 1020.82 1021.00 1021.15 1021.25 1021.33 1021.40 1021.49 1021.62 1021.80 1022.00 1022.20 1022.39 1022.53
1018.30 1018.49 1018.49 1018.26 1017.80 1017.13 1016.34 1015.52 1014.79 1014.25 1013.96 1013.93 1014.14 1014.52 1014.99 1015.47 1015.88 1016.20 1016.42 1016.60 1016.76 1016.96 1017.23 1017.57 1017.97 1018.39 1018.79 1019.14 1019.42 1019.63 1019.81 1019.97 1020.14 1020.33 1020.55 1020.77 1020.97 1021.14 1021.27 1021.36 1021.43 1021.51 1021.63 1021.79 1022.00 1022.22 1022.45 1022.64 1022.78
1018.54 1018.66 1018.59 1018.28 1017.75 1017.05 1016.24 1015.44 1014.74 1014.25 1014.00 1014.00 1014.22 1014.60 1015.06 1015.51 1015.91 1016.23 1016.47 1016.67 1016.87 1017.10 1017.39 1017.74 1018.12 1018.51 1018.87 1019.18 1019.42 1019.62 1019.80 1019.98 1020.18 1020.41 1020.66 1020.90 1021.13 1021.31 1021.45 1021.54 1021.62 1021.71 1021.84 1022.01 1022.22 1022.45 1022.67 1022.85 1022.97
1018.54 1018.61 1018.49 1018.15 1017.62 1016.93 1016.17 1015.43 1014.80 1014.36 1014.14 1014.15 1014.35 1014.69 1015.09 1015.49 1015.85 1016.15 1016.41 1016.63 1016.87 1017.14 1017.46 1017.82 1018.19 1018.55 1018.86 1019.13 1019.34 1019.52 1019.69 1019.88 1020.11 1020.38 1020.68 1020.98 1021.25 1021.48 1021.64 1021.76 1021.85 1021.95 1022.07 1022.24 1022.43 1022.64 1022.84 1022.99 1023.07
1018.32 1018.34 1018.20 1017.87 1017.38 1016.77 1016.10 1015.45 1014.91 1014.53 1014.33 1014.33 1014.48 1014.74 1015.06 1015.38 1015.68 1015.95 1016.20 1016.45 1016.73 1017.04 1017.39 1017.76 1018.13 1018.47 1018.75 1018.98 1019.16 1019.31 1019.48 1019.69 1019.95 1020.26 1020.61 1020.97 1021.30 1021.58 1021.79 1021.94 1022.06 1022.17 1022.28 1022.43 1022.59 1022.77 1022.93 1023.04 1023.10
1017.90 1017.89 1017.75 1017.46 1017.05 1016.54 1016.00 1015.47 1015.02 1014.70 1014.53 1014.49 1014.57 1014.74 1014.95 1015.18 1015.41 1015.63 1015.87 1016.13 1016.43 1016.78 1017.17 1017.56 1017.93 1018.26 1018.53 1018.74 1018.89 1019.04 1019.20 1019.41 1019.69 1020.04 1020.43 1020.84 1021.22 1021.55 1021.82 1022.02 1022.16 1022.28 1022.39 1022.52 1022.66 1022.80 1022.92 1023.00 1023.03
1017.36 1017.32 1017.18 1016.95 1016.64 1016.26 1015.85 1015.45 1015.11 1014.85 1014.68 1014.60 1014.61 1014.68 1014.78 1014.91 1015.06 1015.23 1015.44 1015.70 1016.02 1016.39 1016.80 1017.22 1017.61 1017.95 1018.22 1018.43 1018.58 1018.72 1018.88 1019.09 1019.38 1019.74 1020.15 1020.58 1021.00 1021.38 1021.69 1021.92 1022.10 1022.24 1022.36 1022.48 1022.60 1022.71 1022.81 1022.88 1022.90
1016.77 1016.69 1016.57 1016.39 1016.17 1015.92 1015.65 1015.38 1015.14 1014.93 1014.77 1014.66 1014.60 1014.58 1014.58 1014.61 1014.68 1014.79 1014.96 1015.21 1015.52 1015.90 1016.33 1016.77 1017.18 1017.55 1017.84 1018.07 1018.25 1018.40 1018.56 1018.77 1019.05 1019.39 1019.79 1020.22 1020.65 1021.04 1021.37 1021.64 1021.85 1022.01 1022.15 1022.28 1022.40 1022.51 1022.61 1022.68 1022.71
1016.21 1016.09 1015.96 1015.84 1015.70 1015.56 1015.42 1015.26 1015.10 1014.94 1014.80 1014.67 1014.55 1014.45 1014.38 1014.33 1014.32 1014.37 1014.49 1014.69 1014.98 1015.34 1015.76 1016.21 1016.65 1017.05 1017.39 1017.67 1017.89 1018.08 1018.26 1018.46 1018.72 1019.02 1019.38 1019.77 1020.17 1020.55 1020.88 1021.17 1021.41 1021.61 1021.78 1021.93 1022.08 1022.21 1022.33 1022.42 1022.48
1015.74 1015.57 1015.44 1015.35 1015.28 1015.23 1015.18 1015.11 1015.02 1014.90 1014.77 1014.62 1014.46 1014.32 1014.18 1014.07 1014.00 1013.99 1014.05 1014.19 1014.42 1014.74 1015.13 1015.57 1016.02 1016.47 1016.87 1017.22 1017.50 1017.75 1017.96 1018.17 1018.40 1018.66 1018.95 1019.28 1019.62 1019.96 1020.28 1020.57 1020.83 1021.07 1021.28 1021.48 1021.66 1021.83 1021.99 1022.11 1022.20
1015.41 1015.19 1015.05 1014.98 1014.96 1014.97 1014.98 1014.96 1014.91 1014.81 1014.68 1014.52 1014.34 1014.16 1013.99 1013.84 1013.73 1013.66 1013.65 1013.71 1013.86 1014.11 1014.44 1014.85 1015.31 1015.78 1016.25 1016.67 1017.05 1017.36 1017.63 1017.85 1018.06 1018.28 1018.50 1018.76 1019.03 1019.31 1019.61 1019.90 1020.18 1020.45 1020.70 1020.95 1021.18 1021.40 1021.59 1021.75 1021.87
1015.23 1014.97 1014.82 1014.76 1014.77 1014.81 1014.85 1014.85 1014.80 1014.69 1014.54 1014.36 1014.16 1013.97 1013.78 1013.61 1013.47 1013.35 1013.27 1013.26 1013.31 1013.46 1013.71 1014.06 1014.49 1014.99 1015.51 1016.01 1016.48 1016.88 1017.21 1017.47 1017.68 1017.86 1018.03 1018.21 1018.42 1018.65 1018.91 1019.19 1019.49 1019.79 1020.09 1020.39 1020.66 1020.92 1021.15 1021.33 1021.46
1015.19 1014.91 1014.76 1014.71 1014.73 1014.78 1014.80 1014.78 1014.69 1014.54 1014.35 1014.14 1013.92 1013.72 1013.53 1013.36 1013.20 1013.05 1012.91 1012.81 1012.76 1012.80 1012.95 1013.22 1013.61 1014.10 1014.65 1015.23 1015.78 1016.27 1016.67 1016.98 1017.21 1017.38 1017.51 1017.64 1017.79 1017.98 1018.22 1018.50 1018.81 1019.14 1019.48 1019.81 1020.12 1020.40 1020.64 1020.83 1020.97
1015.25 1014.99 1014.86 1014.82 1014.84 1014.87 1014.85 1014.77 1014.61 1014.39 1014.13 1013.86 1013.61 1013.40 1013.22 1013.05 1012.90 1012.73 1012.55 1012.37 1012.23 1012.16 1012.19 1012.36 1012.69 1013.15 1013.71 1014.33 1014.95 1015.52 1016.00 1016.36 1016.62 1016.79 1016.91 1017.02 1017.14 1017.31 1017.53 1017.82 1018.14 1018.49 1018.85 1019.21 1019.53 1019.82 1020.07 1020.25 1020.37
1015.38 1015.16 1015.06 1015.05 1015.08 1015.07 1015.00 1014.83 1014.56 1014.23 1013.87 1013.53 1013.24 1013.01 1012.83 1012.69 1012.55 1012.39 1012.19 1011.96 1011.74 1011.57 1011.50 1011.57 1011.81 1012.21 1012.76 1013.39 1014.04 1014.66 1015.20 1015.61 1015.91 1016.10 1016.23 1016.33 1016.45 1016.61 1016.84 1017.13 1017.46 1017.83 1018.21 1018.57 1018.89 1019.17 1019.40 1019.57 1019.67
1015.53 1015.38 1015.35 1015.38 1015.40 1015.37 1015.22 1014.95 1014.56 1014.10 1013.62 1013.19 1012.83 1012.58 1012.41 1012.29 1012.19 1012.05 1011.86 1011.61 1011.34 1011.10 1010.93 1010.90 1011.05 1011.39 1011.88 1012.49 1013.14 1013.78 1014.34 1014.78 1015.10 1015.32 1015.46 1015.58 1015.70 1015.87 1016.10 1016.40 1016.75 1017.12 1017.50 1017.85 1018.17 1018.43 1018.64 1018.78 1018.86
1015.67 1015.61 1015.66 1015.75 1015.79 1015.73 1015.51 1015.13 1014.62 1014.02 1013.42 1012.89 1012.46 1012.18 1012.01 1011.92 1011.86 1011.77 1011.61 1011.37 1011.08 1010.79 1010.55 1010.44 1010.50 1010.75 1011.17 1011.72 1012.33 1012.94 1013.49 1013.93 1014.26 1014.48 1014.64 1014.76 1014.89 1015.07 1015.31 1015.61 1015.96 1016.33 1016.70 1017.04 1017.33 1017.57 1017.76 1017.89 1017.97
1015.82 1015.86 1016.00 1016.15 1016.22 1016.14 1015.86 1015.39 1014.76 1014.04 1013.32 1012.69 1012.20 1011.88 1011.71 1011.65 1011.62 1011.58 1011.46 1011.25 1010.97 1010.66 1010.39 1010.22 1010.20 1010.36 1010.68 1011.14 1011.68 1012.22 1012.72 1013.13 1013.43 1013.64 1013.78 1013.90 1014.03 1014.21 1014.45 1014.74 1015.08 1015.44 1015.78 1016.10 1016.37 1016.59 1016.77 1016.90 1016.98
1016.00 1016.15 1016.38 1016.59 1016.69 1016.59 1016.27 1015.72 1015.00 1014.17 1013.36 1012.65 1012.10 1011.74 1011.57 1011.52 1011.53 1011.52 1011.45 1011.28 1011.03 1010.72 1010.43 1010.21 1010.13 1010.20 1010.43 1010.78 1011.22 1011.66 1012.08 1012.41 1012.66 1012.83 1012.94 1013.03 1013.15 1013.31 1013.52 1013.80 1014.11 1014.44 1014.75 1015.04 1015.29 1015.49 1015.66 1015.80 1015.92
1016.28 1016.52 1016.82 1017.08 1017.19 1017.09 1016.73 1016.13 1015.34 1014.45 1013.57 1012.80 1012.21 1011.82 1011.62 1011.57 1011.60 1011.62 1011.57 1011.43 1011.20 1010.91 1010.61 1010.36 1010.22 1010.22 1010.35 1010.59 1010.91 1011.24 1011.55 1011.79 1011.96 1012.07 1012.13 1012.18 1012.26 1012.38 1012.56 1012.80 1013.07 1013.35 1013.62 1013.88 1014.09 1014.29 1014.45 1014.61 1014.76
1016.73 1017.02 1017.36 1017.63 1017.74 1017.62 1017.23 1016.59 1015.76 1014.84 1013.93 1013.13 1012.50 1012.09 1011.87 1011.80 1011.82 1011.83 1011.79 1011.66 1011.43 1011.15 1010.84 1010.57 1010.38 1010.30 1010.34 1010.48 1010.68 1010.90 1011.09 1011.23 1011.31 1011.34 1011.35 1011.35 1011.38 1011.46 1011.59 1011.77 1011.98 1012.21 1012.43 1012.63 1012.82 1012.99 1013.15 1013.32 1013.50
1017.38 1017.68 1018.01 1018.25 1018.32 1018.16 1017.73 1017.06 1016.22 1015.29 1014.38 1013.58 1012.95 1012.51 1012.27 1012.16 1012.13 1012.11 1012.04 1011.88 1011.64 1011.34 1011.02 1010.72 1010.48 1010.34 1010.30 1010.34 1010.43 1010.53 1010.62 1010.67 1010.67 1010.63 1010.58 1010.53 1010.52 1010.55 1010.62 1010.74 1010.89 1011.04 1011.20 1011.34 1011.48 1011.62 1011.77 1011.94 1012.14
1018.24 1018.50 1018.76 1018.92 1018.90 1018.66 1018.17 1017.48 1016.63 1015.72 1014.84 1014.06 1013.44 1012.99 1012.72 1012.56 1012.47 1012.38 1012.25 1012.04 1011.75 1011.41 1011.06 1010.72 1010.44 1010.24 1010.12 1010.07 1010.06 1010.07 1010.07 1010.04 1009.97 1009.89 1009.80 1009.72 1009.67 1009.65 1009.68 1009.73 1009.81 1009.89 1009.97 1010.05 1010.13 1010.22 1010.34 1010.49 1010.68
1019.26 1019.43 1019.55 1019.57 1019.41 1019.05 1018.49 1017.75 1016.91 1016.03 1015.18 1014.45 1013.86 1013.42 1013.12 1012.91 1012.75 1012.57 1012.35 1012.07 1011.72 1011.32 1010.91 1010.53 1010.19 1009.93 1009.74 1009.61 1009.52 1009.45 1009.37 1009.29 1009.18 1009.07 1008.97 1008.88 1008.81 1008.78 1008.76 1008.77 1008.77 1008.78 1008.77 1008.77 1008.78 1008.81 1008.88 1008.99 1009.16
1020.33 1020.35 1020.29 1020.11 1019.77 1019.26 1018.59 1017.81 1016.96 1016.11 1015.33 1014.66 1014.11 1013.69 1013.37 1013.12 1012.89 1012.63 1012.32 1011.95 1011.53 1011.06 1010.60 1010.16 1009.77 1009.44 1009.17 1008.97 1008.80 1008.66 1008.53 1008.40 1008.28 1008.17 1008.07 1008.00 1007.94 1007.90 1007.87 1007.83 1007.78 1007.71 1007.63 1007.54 1007.46 1007.42 1007.43 1007.49 1007.62
Thickness
5731 5736 5737 5728 5708 5689 5690 5705 5716 5720 5723 5731 5731 5726 5717 5713 5710 5706 5720 5724 5721 5716 5712 5710 5707 5705 5703 5702 5701 5700 5699 5699 5698 5697 5697 5696 5696 5695 5695 5694 5694 5694 5694 5693 5693 5692 5692 5692 5691
5728 5731 5726 5711 5689 5676 5687 5708 5714 5722 5727 5732 5730 5724 5716 5715 5720 5719 5720 5722 5721 5717 5713 5710 5707 5705 5703 5702 5701 5700 5699 5698 5697 5696 5696 5695 5695 5694 5694 5693 5693 5693 5692 5692 5691 5690 5690 5690 5689
5724 5725 5708 5693 5683 5678 5692 5709 5714 5724 5731 5732 5724 5721 5717 5716 5720 5721 5724 5723 5720 5716 5712 5710 5707 5705 5703 5701 5700 5699 5698 5697 5696 5695 5695 5694 5693 5693 5692 5692 5691 5691 5690 5690 5689 5689 5688 5688 5687
5712 5707 5696 5683 5684 5693 5702 5710 5716 5720 5726 5729 5722 5713 5717 5725 5726 5726 5725 5722 5718 5715 5712 5709 5707 5705 5703 5701 5700 5698 5697 5696 5695 5694 5693 5692 5692 5691 5690 5690 5689 5689 5689 5688 5687 5687 5686 5686 5685
5701 5689 5679 5673 5683 5697 5709 5715 5718 5718 5719 5722 5718 5709 5712 5724 5729 5727 5723 5720 5717 5713 5711 5708 5706 5704 5702 5701 5699 5698 5696 5695 5694 5693 5692 5691 5690 5689 5689 5688 5688 5687 5687 5686 5685 5685 5684 5683 5683
5681 5674 5663 5664 5680 5695 5708 5716 5716 5715 5716 5719 5714 5706 5709 5721 5723 5722 5721 5718 5716 5712 5709 5707 5705 5703 5701 5700 5698 5697 5695 5694 5693 5692 5691 5690 5689 5688 5687 5687 5686 5685 5685 5684 5683 5683 5682 5681 5681
5668 5662 5660 5667 5676 5687 5703 5714 5711 5711 5712 5716 5717 5703 5705 5714 5720 5720 5719 5716 5713 5710 5707 5705 5703 5702 5700 5699 5697 5696 5694 5693 5692 5691 5689 5688 5687 5686 5686 5685 5684 5684 5683 5682 5681 5681 5680 5679 5679
5667 5659 5659 5663 5671 5683 5700 5708 5712 5710 5712 5720 5719 5704 5702 5712 5717 5717 5714 5712 5709 5708 5706 5704 5702 5701 5699 5698 5696 5695 5693 5692 5691 5689 5688 5687 5686 5685 5684 5684 5683 5682 5681 5681 5680 5679 5678 5678 5677
5663 5648 5649 5662 5671 5682 5694 5699 5707 5714 5712 5713 5716 5716 5718 5718 5715 5711 5708 5706 5705 5704 5704 5703 5701 5699 5698 5696 5695 5693 5692 5691 5689 5688 5687 5686 5685 5684 5683 5682 5682 5681 5680 5679 5678 5677 5677 5676 5675
5647 5640 5654 5669 5676 5680 5686 5691 5697 5701 5700 5701 5705 5710 5716 5714 5711 5708 5706 5704 5703 5702 5703 5702 5700 5699 5697 5695 5694 5692 5691 5690 5688 5687 5686 5685 5684 5683 5682 5681 5680 5679 5679 5678 5677 5676 5675 5674 5673
5641 5644 5658 5666 5673 5677 5679 5684 5691 5691 5690 5697 5699 5702 5706 5707 5706 5705 5705 5705 5705 5704 5703 5702 5700 5698 5696 5695 5693 5691 5690 5689 5687 5686 5685 5684 5683 5681 5681 5680 5679 5678 5677 5676 5675 5674 5673 5672 5672
5633 5644 5653 5659 5666 5670 5672 5677 5681 5685 5692 5702 5703 5704 5702 5702 5703 5704 5704 5704 5704 5702 5702 5702 5701 5698 5696 5695 5693 5691 5689 5688 5686 5685 5684 5683 5681 5680 5679 5678 5678 5677 5676 5675 5673 5672 5671 5671 5670
5623 5633 5643 5651 5656 5661 5666 5668 5672 5680 5690 5696 5696 5696 5697 5698 5700 5702 5703 5703 5702 5701 5701 5701 5700 5698 5696 5694 5692 5691 5689 5688 5687 5685 5684 5682 5681 5680 5679 5678 5677 5676 5675 5673 5672 5671 5670 5669 5668
5614 5622 5630 5639 5645 5651 5653 5659 5663 5675 5683 5684 5685 5688 5692 5694 5696 5696 5697 5698 5699 5700 5701 5701 5699 5698 5696 5694 5692 5691 5689 5688 5686 5685 5684 5682 5681 5679 5678 5677 5676 5675 5674 5673 5671 5670 5669 5668 5667
5604 5606 5615 5626 5633 5641 5643 5643 5655 5670 5673 5674 5677 5681 5685 5689 5692 5694 5697 5699 5700 5700 5700 5699 5699 5697 5696 5694 5692 5691 5689 5687 5686 5684 5683 5682 5681 5679 5678 5676 5675 5674 5673 5671 5669 5668 5667 5665 5665
5588 5590 5595 5614 5623 5629 5626 5630 5652 5662 5662 5664 5669 5673 5678 5684 5688 5692 5695 5697 5698 5698 5698 5698 5697 5696 5694 5693 5691 5690 5688 5686 5685 5684 5682 5681 5680 5679 5677 5675 5674 5673 5671 5669 5667 5665 5664 5662 5662
5568 5573 5584 5600 5613 5616 5615 5623 5644 5653 5653 5656 5661 5666 5671 5677 5683 5688 5692 5694 5695 5696 5695 5694 5694 5694 5692 5691 5689 5688 5686 5685 5684 5682 5681 5680 5679 5677 5675 5674 5672 5670 5668 5666 5665 5663 5661 5659 5658
5558 5565 5577 5586 5601 5603 5605 5615 5632 5641 5644 5648 5653 5658 5663 5669 5678 5685 5688 5690 5691 5692 5692 5691 5691 5691 5689 5687 5685 5684 5683 5682 5682 5681 5680 5679 5677 5675 5673 5672 5670 5667 5665 5664 5662 5660 5658 5656 5654
5555 5558 5565 5578 5589 5590 5595 5606 5619 5630 5633 5638 5644 5650 5657 5665 5674 5678 5681 5684 5685 5685 5686 5687 5686 5686 5684 5682 5680 5679 5679 5679 5679 5678 5677 5676 5674 5672 5670 5669 5667 5664 5663 5661 5659 5656 5653 5651 5649
5541 5544 5552 5565 5576 5579 5583 5592 5608 5618 5626 5633 5639 5645 5651 5657 5663 5669 5673 5676 5678 5679 5681 5682 5683 5682 5681 5680 5679 5678 5676 5675 5675 5674 5673 5672 5671 5669 5667 5665 5664 5661 5659 5657 5655 5652 5649 5647 5644
5530 5536 5543 5550 5560 5567 5569 5577 5593 5610 5619 5628 5635 5642 5646 5651 5656 5661 5665 5668 5670 5672 5675 5678 5678 5678 5677 5676 5673 5671 5669 5668 5668 5668 5668 5668 5666 5664 5663 5661 5659 5657 5655 5653 5651 5648 5645 5642 5639
5522 5534 5537 5540 5541 5544 5553 5554 5580 5597 5608 5619 5628 5633 5639 5645 5650 5654 5657 5659 5662 5665 5668 5670 5671 5671 5671 5669 5666 5665 5664 5664 5666 5665 5663 5662 5661 5659 5658 5656 5654 5652 5650 5648 5646 5643 5641 5637 5634
5515 5525 5527 5529 5529 5530 5538 5539 5562 5583 5596 5611 5620 5627 5633 5638 5641 5644 5648 5651 5654 5656 5658 5660 5662 5662 5663 5662 5661 5659 5658 5659 5658 5657 5655 5655 5654 5653 5652 5650 5648 5646 5644 5642 5640 5637 5635 5632 5629
5507 5509 5512 5514 5514 5514 5531 5529 5549 5571 5592 5605 5613 5619 5624 5627 5630 5634 5637 5640 5642 5645 5647 5649 5650 5651 5652 5652 5652 5651 5650 5650 5648 5648 5647 5647 5646 5645 5644 5643 5641 5639 5637 5635 5633 5631 5628 5626 5623
5495 5491 5488 5489 5493 5503 5527 5527 5549 5572 5588 5598 5604 5608 5612 5615 5617 5620 5623 5626 5629 5632 5634 5636 5637 5638 5640 5641 5641 5642 5642 5641 5640 5640 5639 5638 5637 5637 5637 5635 5633 5631 5630 5628 5625 5623 5621 5618 5616
5488 5487 5482 5481 5485 5496 5512 5522 5549 5567 5579 5587 5593 5596 5598 5600 5603 5606 5610 5613 5616 5619 5621 5623 5625 5626 5627 5629 5630 5631 5631 5630 5630 5630 5629 5628 5628 5628 5628 5626 5624 5623 5621 5619 5617 5614 5612 5610 5607
5479 5480 5486 5480 5477 5480 5493 5514 5538 5556 5563 5570 5574 5578 5580 5583 5587 5591 5595 5598 5601 5604 5607 5610 5611 5612 5613 5615 5617 5617 5618 5618 5618 5618 5617 5616 5616 5616 5616 5615 5614 5612 5610 5608 5606 5605 5603 5600 5598
5477 5479 5472 5467 5465 5467 5486 5503 5522 5539 5546 5552 5557 5561 5565 5569 5572 5575 5578 5582 5585 5588 5591 5594 5596 5597 5598 5600 5601 5603 5603 5604 5604 5604 5604 5604 5604 5604 5603 5603 5602 5601 5599 5597 5595 5593 5592 5589 5587
5464 5466 5467 5464 5461 5464 5469 5496 5523 5530 5535 5538 5541 5546 5549 5552 5555 5558 5562 5564 5568 5571 5574 5577 5579 5580 5581 5583 5585 5586 5588 5589 5589 5590 5591 5591 5591 5591 5590 5589 5588 5587 5586 5585 5582 5581 5579 5577 5574
5462 5463 5462 5453 5451 5459 5468 5489 5519 5520 5523 5525 5527 5530 5533 5536 5539 5541 5543 5546 5549 5553 5555 5558 5561 5563 5565 5566 5568 5570 5571 5572 5573 5574 5575 5575 5576 5576 5576 5575 5574 5573 5573 5571 5569 5568 5566 5563 5561